Cloud_Cover
100 100 100 100 100 100 90 99 64 100 100 100 99 46 100 80 0 3 2 4 2 5 67 64 91 93 98 94 49 46 18 11 5 89 70 1 0 0 0 0 1 5 0 3 17
100 100 100 100 100 100 100 98 96 100 100 100 99 59 100 10 0 5 1 1 1 6 95 53 41 90 95 73 98 100 82 39 41 3 1 23 9 0 0 7 5 4 1 12 81
100 100 100 100 100 100 100 100 100 100 100 100 97 100 9 3 1 3 4 0 0 0 4 5 5 56 31 37 100 15 23 5 0 0 0 34 24 1 5 5 5 5 5 98 28
100 100 100 100 100 100 100 100 100 100 100 100 100 97 0 0 0 0 0 0 1 0 0 0 0 0 1 4 4 84 7 4 0 0 0 6 32 5 16 5 5 69 46 92 78
100 100 100 100 100 100 100 100 100 100 100 99 100 56 1 0 0 0 3 4 1 4 3 0 5 5 4 4 2 3 3 1 7 5 5 1 1 5 5 5 5 100 39 85 68
100 100 100 100 100 100 100 100 100 100 100 99 93 61 0 0 0 0 0 4 4 0 0 4 5 5 5 65 72 10 77 91 100 15 0 0 0 0 0 0 5 10 100 58 77
100 100 100 100 100 100 100 100 100 100 100 100 52 0 0 0 0 0 3 1 0 3 5 5 5 60 62 88 88 80 95 78 97 92 4 3 5 7 2 0 0 28 100 100 100
100 100 100 100 100 100 100 100 100 100 100 99 0 0 0 0 0 0 0 0 0 5 5 5 5 31 18 36 99 72 82 100 100 79 2 3 3 43 3 1 0 1 87 97 100
100 100 100 100 100 100 97 76 58 41 94 7 0 0 0 0 0 0 0 0 0 0 5 5 5 5 6 39 100 98 94 100 100 78 5 5 4 5 5 5 0 0 8 82 100
100 100 100 100 100 100 74 74 0 5 5 0 0 0 0 0 0 0 0 0 0 0 5 55 45 5 0 100 100 99 85 100 100 62 11 21 13 5 5 6 2 0 1 8 54
100 100 100 100 100 1 0 0 0 0 0 0 0 0 0 0 0 0 0 0 0 0 5 38 5 0 0 87 100 92 99 100 100 63 26 92 47 5 5 63 3 5 0 4 7
100 100 100 100 91 9 0 0 0 0 0 0 0 0 0 0 0 0 0 0 0 2 5 5 5 0 0 87 100 94 100 100 100 100 100 100 25 21 4 79 39 1 5 0 0
100 100 100 100 100 14 0 0 0 0 0 0 0 0 0 0 0 0 0 0 0 5 5 5 3 0 0 11 100 78 71 100 100 100 100 100 30 8 6 5 49 0 5 20 72
100 100 100 100 38 0 0 0 0 0 0 0 0 0 0 0 0 0 0 0 0 4 5 5 5 0 0 0 11 90 96 100 100 100 88 100 64 10 34 5 85 3 0 2 91
100 100 100 96 0 0 0 0 0 0 0 0 0 0 0 0 0 0 0 0 0 0 15 5 16 27 0 0 0 99 100 100 100 100 100 100 83 8 5 5 5 5 4 3 92
100 100 100 34 8 0 0 0 0 0 0 0 0 0 0 0 0 0 0 0 0 0 5 16 40 53 5 1 0 39 100 100 100 100 100 100 90 99 7 18 5 5 5 13 11
100 100 91 0 0 0 0 0 0 0 0 0 0 0 0 0 0 0 0 0 0 0 5 16 4 83 5 5 5 21 100 100 100 100 100 100 100 100 86 42 6 5 5 7 11
100 96 8 0 0 0 0 0 0 0 0 0 0 0 0 0 0 0 0 0 0 0 5 47 61 100 85 4 5 29 55 80 100 100 100 100 84 10 13 100 99 7 5 91 80
61 0 0 0 0 0 0 0 0 0 0 0 0 0 0 0 0 0 0 0 0 0 26 53 56 93 6 91 3 99 87 7 42 100 100 99 43 5 4 25 100 5 10 5 79
0 0 0 0 0 0 0 0 0 0 0 0 0 0 0 0 0 0 0 0 0 0 50 30 70 5 5 1 0 44 100 74 96 69 45 6 8 3 5 24 100 94 35 99 100
0 0 0 0 0 0 0 0 0 0 1 2 2 5 3 0 0 0 0 0 0 4 85 54 39 50 2 0 0 0 3 70 57 99 5 18 0 0 5 3 100 99 20 99 100
0 0 0 0 0 0 0 0 0 5 0 3 5 0 0 0 0 0 3 0 0 0 87 87 16 0 1 0 0 0 0 0 6 67 55 3 0 0 5 43 100 100 84 94 100
0 0 0 0 0 3 0 0 0 4 39 21 5 1 5 0 0 3 3 0 0 5 3 0 0 0 0 0 0 0 0 0 0 0 0 0 0 0 13 5 100 100 81 98 100
0 0 0 0 0 2 5 0 0 0 3 5 4 57 2 0 0 5 0 0 0 2 3 3 0 0 0 0 0 0 0 0 0 0 0 0 0 0 1 46 100 100 90 100 93
0 0 0 3 2 5 2 0 0 0 0 0 5 8 96 4 0 0 0 0 0 0 0 0 0 0 0 0 0 0 0 0 0 0 0 4 0 0 0 1 100 100 100 100 99
0 0 0 0 0 0 0 0 0 0 0 0 0 0 0 0 40 60 14 0 1 2 2 0 0 0 0 0 0 0 0 0 0 2 2 16 5 0 0 0 96 100 100 100 100
0 0 0 0 0 0 0 0 0 0 0 0 0 0 0 0 0 1 4 5 57 96 5 0 0 0 0 0 0 0 0 0 0 4 5 53 52 27 5 0 1 71 100 100 100